Weather in Oster

Ukraine / Chernihiv Region     50°56′52″N   30°52′51″E
temp.,
°C
wind,
m/s
gust,
m/s
humid.,
%
clouds,
%
prec.,
mm/h
press.,
hPa
HPBL,
m
11 april, sun
sun1100:00+5s47670 0.0 1026106
03:00+4s35700 0.0 102771
06:00+4ssw33710 0.0 102726
09:00+8s34580 0.0 1029232
12:00+13sse33440 0.0 10291002
15:00+14se33390 0.0 10281387
18:00+14ese23440 0.0 1027471
21:00+9e34580 0.0 102849
12 april, mon
mon1200:00+7e33620 0.0 102840
03:00+6ene336994 0.0 102835
06:00+5ene347294 0.0 102759
09:00+9ene4660100 0.0 1026303
12:00+12ene4549100 0.0 1024706
15:00+12ene4467100 0.0 1023644
18:00+11e3585100 0.3 1023368
21:00+10e2388100 0.3 102375
13 april, tue
tue1300:00+9nw3492100 0.0 102265
03:00+10nne3690100 0.0 1020133
06:00+9n4695100 0.0 1019113
09:00+11e358497 0.0 1019321
12:00+15ese5673100 0.0 1018856
15:00+15se5670100 0.1 10181083
18:00+13se4881100 0.1 1017546
21:00+12sse3788100 0.0 1018217
14 april, wed
wed1400:00+11sse4889100 0.0 1018418
03:00+10sse489259 0.1 1017350
06:00+8sse369499 0.0 1017138
09:00+10se3685100 0.0 1017273
12:00+12sse4667100 0.0 1016709
15:00+14s6756100 0.0 10151207
18:00+13s3561100 0.0 1015911
21:00+10e117076 0.0 101610
15 april, thu
thu1500:00+9e227896 0.0 101616
03:00+10ne2276100 0.0 101532
06:00+10ne3479100 0.0 101476
09:00+10nne4891100 1.3 1014381
12:00+11ene578793 1.4 1013431
15:00+13ne3477100 2.6 1012384
18:00+11e2289100 2.2 101152
21:00+10n3592100 3.1 1011144